Location: McFarlands Corners
(41.4117°N, 81.3382°W)
Time: 09:10:13
(UTC+00:00)

Courier 1B Rocket - All Passes

Search period start: 16 February 2026 00:00
Search period end: 26 February 2026 00:00
Orbit: 920 x 1201 km, 28.3° (Epoch: 15 February)

Date Brightness Start Highest point End Pass type
(mag) Time Alt. Az. Time Alt. Az. Time Alt. Az.
16 Feb - 00:22:43 10° S 00:25:15 12° SSE 00:27:49 10° SE visible
16 Feb - 02:12:38 10° SW 02:17:36 24° S 02:22:47 10° ESE visible
16 Feb - 04:04:51 10° WSW 04:10:11 26° S 04:15:49 10° SE night (unlit)
16 Feb - 05:58:32 10° WSW 06:02:48 17° SSW 06:07:14 10° SSE night (unlit)
17 Feb - 01:12:11 10° SSW 01:16:39 20° SSE 01:21:16 10° ESE visible
17 Feb - 03:03:56 10° SW 03:09:09 26° S 03:14:39 10° SE visible
17 Feb - 04:57:02 10° WSW 05:01:46 20° SSW 05:06:43 10° SSE night (unlit)
18 Feb - 00:12:03 10° SSW 00:15:46 16° SSE 00:19:32 10° SE visible
18 Feb - 02:03:08 10° SW 02:08:10 25° S 02:13:26 10° ESE visible
18 Feb - 03:55:48 10° WSW 04:00:45 23° S 04:05:57 10° SE night (unlit)
18 Feb - 05:50:39 10° SW 05:53:17 12° SSW 05:55:57 10° S night (unlit)
18 Feb - 23:12:32 10° S 23:14:54 12° SSE 23:17:17 10° SE daylight
19 Feb - 01:02:29 10° SW 01:07:14 23° S 01:12:07 10° ESE visible
19 Feb - 02:54:44 10° WSW 02:59:45 24° S 03:05:00 10° SE visible
19 Feb - 04:48:31 10° SW 04:52:17 16° SSW 04:56:12 10° SSE night (unlit)
20 Feb - 00:02:00 10° SSW 00:06:20 20° SSE 00:10:42 10° ESE visible
20 Feb - 01:53:48 10° SW 01:58:47 25° S 02:03:57 10° SE visible
20 Feb - 03:46:58 10° WSW 03:51:19 19° SSW 03:55:49 10° SSE night (unlit)
20 Feb - 23:01:47 10° SSW 23:05:26 16° SSE 23:09:06 10° SE daylight
21 Feb - 00:52:58 10° SW 00:57:50 24° S 01:02:50 10° SE visible
21 Feb - 02:45:42 10° WSW 02:50:21 21° S 02:55:10 10° SE visible
21 Feb - 04:41:01 10° SW 04:42:48 11° SSW 04:44:35 10° S night (unlit)
21 Feb - 22:02:06 10° S 22:04:34 12° SSE 22:07:02 10° SE daylight
21 Feb - 23:52:15 10° SW 23:56:55 22° S 00:01:38 10° ESE visible
22 Feb - 01:44:36 10° WSW 01:49:24 23° S 01:54:20 10° SE visible
22 Feb - 03:38:33 10° SW 03:41:51 14° SSW 03:45:15 10° SSE visible
22 Feb - 22:51:40 10° SSW 22:56:01 20° SSE 23:00:20 10° ESE daylight
23 Feb - 00:43:36 10° SW 00:48:28 24° S 00:53:25 10° SE visible
23 Feb - 02:36:54 10° SW 02:40:56 18° SSW 02:45:04 10° SSE visible
23 Feb - 21:51:20 10° SSW 21:55:07 16° SSE 21:58:52 10° SE daylight
23 Feb - 23:42:41 10° SW 23:47:33 24° S 23:52:24 10° SE visible
24 Feb - 01:35:34 10° WSW 01:40:01 20° S 01:44:33 10° SE visible
24 Feb - 03:32:11 10° SSW 03:32:23 10° SSW 03:32:33 10° SSW visible
24 Feb - 20:51:24 10° S 20:54:14 13° SSE 20:57:00 10° SE daylight
24 Feb - 22:41:52 10° SW 22:46:37 22° S 22:51:19 10° ESE daylight
25 Feb - 00:34:23 10° WSW 00:39:06 23° S 00:43:51 10° SE visible
25 Feb - 02:28:33 10° SW 02:31:29 14° SSW 02:34:28 10° S visible
25 Feb - 21:41:10 10° SSW 21:45:42 20° SSE 21:50:08 10° ESE daylight
25 Feb - 23:33:17 10° SW 23:38:11 24° S 23:43:02 10° SE visible
